Flag for Congo Dem.Rep. Weather past 2 weeks in Bukavu, Congo Dem.Rep.

Now
64 °F

Passing clouds.


Feels Like: 64 °F
Forecast: 57 / 73 °F
Wind: No wind

Location: Kigali Airport

Current Time: Sep 1, 2015 at 2:21:16 AM

Latest Report: Sep 1, 2015 at 1:00 AM


Visibility: N/A

Pressure: 30.18 "Hg (24.69 "Hg at 1710m altitude)

Humidity: 100%

Dew point: 64 °F

Location of BukavuLocation

Historic Weather in Bukavu — Graph

°F

Bukavu temperature yesterday

Maximum temperature yesterday: 90 °F (at 12:30 PM)
Minimum temperature yesterday: 63 °F (at 11:30 PM)
Average temperature yesterday: 74 °F

Past Weeks' High & Low Weather Summary

 TemperatureHumidityPressure
High90 °F (Aug 20, 3:30 PM)100% (Aug 31, 11:00 PM)30.27 "Hg (Aug 31, 11:00 PM)
Low57 °F (Aug 24, 5:30 AM)23% (Aug 24, 5:00 PM)29.98 "Hg (Aug 20, 5:00 PM)
Average75 °F50%30.12 "Hg
* Reported Midnight between Aug 16 and Aug 17 — Sep 1 12:30 AM, Bukavu, Weather by CustomWeather, © 2015

Note: Actual official high and low records may vary slightly from our data, if they occured in-between our weather recording intervals... More about our weather records

Advertising

Bukavu weather history for previous 24 hours

 ConditionsComfort  
Time TempWeatherWind HumidityBarometerVisibility
12:30 AM
Tue, Sep 1
64 °FPassing clouds.3 mph100%30.21 "HgN/A
11:30 PM
Mon, Aug 31
63 °FThunderstorms. Passing clouds.7 mph100%30.21 "HgN/A
11:00 PM64 °FThunderstorms. Passing clouds.3 mph100%30.21 "HgN/A
10:30 PM66 °FThunderstorms. Passing clouds.6 mph88%30.21 "HgN/A
10:00 PM66 °FThunderstorms. Passing clouds.6 mph88%30.21 "HgN/A
9:30 PM66 °FThunderstorms. Passing clouds.10 mph88%30.21 "HgN/A
9:00 PM66 °FThunderstorms. Passing clouds.6 mph88%30.18 "HgN/A
8:30 PM66 °FPassing clouds.No wind88%30.18 "HgN/A
8:00 PM66 °FPassing clouds.8 mph88%30.18 "HgN/A
7:30 PM68 °FThundershowers. Passing clouds.20 mph83%30.15 "Hg5 mi
7:00 PM68 °FThunderstorms. Passing clouds.20 mph83%30.09 "Hg5 mi
6:30 PM66 °FThunderstorms. Passing clouds.18 mph88%30.09 "Hg5 mi
6:00 PM68 °FThunderstorms. Partly sunny.23 mph88%30.09 "Hg5 mi
5:30 PM77 °FThunderstorms. Partly sunny.12 mph61%30.07 "Hg5 mi
5:00 PM82 °FLight rain. Partly sunny.12 mph45%30.04 "Hg5 mi
4:30 PM86 °FScattered clouds.7 mph38%30.04 "HgN/A
4:00 PM88 °FPartly sunny.7 mph35%30.04 "HgN/A
3:30 PM88 °FPartly sunny.7 mph35%30.04 "HgN/A
3:00 PM88 °FPartly sunny.9 mph35%30.04 "HgN/A
2:30 PM90 °FPartly sunny.9 mph36%30.07 "HgN/A
2:00 PM86 °FPartly sunny.12 mph38%30.09 "HgN/A
1:30 PM84 °FPartly sunny.12 mph43%30.09 "HgN/A
1:00 PM90 °FScattered clouds.6 mph38%30.12 "HgN/A
12:30 PM90 °FScattered clouds.5 mph38%30.15 "HgN/A
12:00 PM86 °FScattered clouds.3 mph43%30.15 "HgN/A
11:30 AM82 °FPartly sunny.3 mph48%30.18 "HgN/A
11:00 AM82 °FPartly sunny.3 mph48%30.21 "HgN/A
10:30 AM82 °FPartly sunny.5 mph48%30.21 "HgN/A
10:00 AM82 °FScattered clouds.3 mph51%30.21 "HgN/A
9:30 AM81 °FPassing clouds.No wind54%30.21 "HgN/A
9:00 AM79 °FSunny.No wind58%30.21 "Hg10 mi
8:00 AM72 °FPassing clouds.No wind73%30.21 "HgN/A
7:30 AM70 °FScattered clouds.5 mph78%30.21 "HgN/A
7:00 AM66 °FScattered clouds.6 mph83%30.18 "HgN/A
6:30 AM66 °FScattered clouds.3 mph78%30.18 "HgN/A
6:00 AM64 °FPassing clouds.No wind88%30.15 "HgN/A
5:30 AM66 °FPassing clouds.No wind78%30.12 "HgN/A
5:00 AM66 °FPassing clouds.No wind78%30.12 "HgN/A
4:00 AM66 °FPassing clouds.No wind78%30.12 "HgN/A
3:30 AM66 °FPassing clouds.7 mph83%30.12 "HgN/A
3:00 AM68 °FPassing clouds.3 mph73%30.12 "HgN/A
2:30 AM68 °FPassing clouds.3 mph73%30.12 "HgN/A
2:00 AM68 °FPassing clouds.3 mph73%30.12 "HgN/A
Weather by CustomWeather, © 2015

See weather overviewHow to use our weather pages